METAR LSZS 251920Z AUTO 01008KT 9999 FEW050 07/M02 Q1031=
Diese Daten sind ohne Gewähr und dürfen nicht für die Flugvorbereitung verwendet werden.
Information contained in this website shall not be used for flight operation purposes.